Location: Bottenau
(48.5138°N, 8.0462°E)
Time: 19:25:08
(UTC+00:00)

ATLAS 2AS CENTAUR R/B - Pass Details

Date: 18 April 2021
Orbit: 949 x 1263 km, 63.7° (Epoch: 07 May)

Event Time Altitude Azimuth Distance (km) Brightness Sun altitude
Rises 19:58:37 0° 230° (SW) 4,200 6.0 -14.8°
Reaches altitude 10° 20:01:26 10° 233° (SW) 3,243 5.4 -15.1°
Maximum altitude 20:09:19 68° 316° (NW) 1,342 3.4 -16.1°
Drops below altitude 10° 20:17:01 10° 39° (NE) 3,172 5.2 -17.1°
Sets 20:19:46 0° 42° (NE) 4,105 5.8 -17.5°
